OBJECT G, 49321

Orbit data source: Space-Track

You're viewing an Uncataloged Satellite

Recently launched and/or uncataloged satellites may have evolving metadata. Metadata may include but not limited to: Owner, Maufacturer, Bus, Motor, and Mission.

OBJECT G, 49321 is a Chinese satellite in SSO that was launched on Thu, 14 Oct 2021 UTC via a CHANG ZHENG 2D launch vehicle from the Taiyaun Space Center, China (TSC). Unknown objects in Earth's orbit typically refer to objects detected orbiting the Earth but have not yet been identified or cataloged. These objects could be anything from previously untracked satellites, spent rocket stages, debris from satellite collisions, or even natural meteoroids temporarily captured by Earth's gravity.

Loading next visibility...
Identifier
49321, 2021-091G
Orbit
SSO
Country
Flag of CNCN / PRC
Related business
None
Manufacturer
Unknown
Mission
Non-operational Amateur Technology
Bus & Motor
Unknown
Mass
Unknown
Launch date (UTC)
2021-10-14 (4 years ago)
Launch vehicle
CHANG ZHENG 2D
Launch site
Taiyaun Space Center, China (TSC)
Object type
Unknown
Shape & HBR
Box + 1 Ant, 1.0 m
Radar Cross Section
0.351 m², Medium (>0.1 m² and < 1m²)

Expand to show TLE details & history
Last TLE update: 16 hours ago

TLE from 16 hours ago
0 OBJECT G
1 49321U 21091G   25348.97033398  .00021619  00000-0  28837-3 0  9996
2 49321  97.3916 199.2758 0004170 274.6390  85.4389 15.58116293232791
Epoch: 2025-12-14T23:17Z
TLE epoch observation values (Epoch: 2025-12-14T23:17:16.855Z)
Latitude
-0.00009°
Longitude
126.07997°
Altitude
396.028 km
Speed
7.673 km/s
True Right ascension
13h 17m 06s
True Declination
0° 00' 00"
Sunlit
Object was in daylight at epoch
Visualization orbit readout
Latitude
Unknown
Longitude
Unknown
Altitude
Unknown
Speed
Unknown
Apparent Right ascension
Unknown
Apparent Declination
Unknown
Sunlit
N/A
Visualization observer readout
Local Sidereal Time
13:25:37
Azimuth
Unknown
Elevation
Unknown
Doppler factor
Unknown
Orbital elements
Apogee altitude
392.846 km
Perigee altitude
387.201 km
Semi-major axis
6,768.161 km
Eccentricity
0.00042
Inclination
97.3916°
RAAN
199.2758°
Arg. of periapsis
274.639°
True anomaly
85.48654°
Mean anomaly
85.4389°
Eccentric anomaly
85.46272°
Mean motion
3.89796 °/min
Orbital period
92.36 mins
BSTAR
0.00028837
Loading maneuver chart data...
Computing Atmospheric mass density...
Loading historical data...
Loading historical data...
Loading historical data...
Loading historical data...
Loading historical data...
Loading historical data...
Loading historical data...

Documentation

Showing up to 5 results
|